Regional Weather Roundup
Issued by NWS Little Rock, AR

Home | Current Version | Previous Version | Text Only | Print | Product List | Glossary Off
Versions: 1 2 3 4 5 6 7 8 9 10 11 12 13 14 15 16 17 18 19 20 21 22 23 24 25 26 27 28 29 30 31 32 33 34 35 36 37 38 39 40 41 42 43 44 45 46 47 48 49 50

998
ASUS44 KLZK 290305
RWRLZK

WEATHER ROUNDUP FOR ARKANSAS
NATIONAL WEATHER SERVICE LITTLE ROCK AR
1000 PM CDT THU APR 28 2016

NOTE: "FAIR" INDICATES FEW OR NO CLOUDS BELOW 12,000 FEET WITH NO
SIGNIFICANT WEATHER AND/OR OBSTRUCTIONS TO VISIBILITY.

ARZ001-003-010-029-290400-
NORTHWEST ARKANSAS

CITY           SKY/WX    TMP DP  RH WIND       PRES   REMARKS
FAYETTEVILLE   CLOUDY    57  52  83 CALM      29.96R
FORT SMITH     CLOUDY    68  49  50 NE5       29.91R
HARRISON       CLEAR     59  46  62 CALM      29.99R
BENTONVILLE    CLOUDY    64  45  48 E7        29.97S
ROGERS         CLOUDY    62  47  57 NE6       29.98R
SILOAM SPGS    CLOUDY    63  45  51 E5        29.97R
HIGHFILL       CLOUDY    63  49  60 NE6       29.96R
$$

ARZ004-005-016-290400-
NORTH CENTRAL ARKANSAS

CITY           SKY/WX    TMP DP  RH WIND       PRES   REMARKS
BATESVILLE     CLEAR     63  52  67 CALM      29.97S
FLIPPIN        CLEAR    N/A N/A N/A NE6       29.95R
MTN HOME       CLEAR     61  47  59 NE3       29.97R
$$

ARZ040-041-290400-
WEST CENTRAL ARKANSAS

CITY           SKY/WX    TMP DP  RH WIND       PRES   REMARKS
MENA           CLOUDY    63  57  82 CALM      29.93R
MOUNT IDA      PTCLDY    62  56  80 CALM      29.91R
$$

ARZ009-017-025-026-028-290400-
NORTHEAST ARKANSAS

CITY           SKY/WX    TMP DP  RH WIND       PRES   REMARKS
CORNING          N/A     66  57  72 CALM      29.98R
JONESBORO      CLEAR     64  52  64 CALM      29.97R
NEWPORT        CLEAR     67  58  72 E5        29.98R
WALNUT RIDGE   CLEAR     70  54  56 CALM      29.98R
BLYTHEVILLE    CLEAR     68  48  48 CALM      29.98R
$$

ARZ022-023-033-042-044-290400-
CENTRAL ARKANSAS

CITY           SKY/WX    TMP DP  RH WIND       PRES   REMARKS
LITTLE ROCK    PTCLDY    68  52  56 E5        29.93S
N LITTLE ROCK    N/A     67  53  62 E3        29.92S
SEARCY         CLEAR     62  58  86 CALM      29.98R
HOT SPRINGS    CLEAR     67  54  63 E7        29.93R
RUSSELLVILLE   CLOUDY    67  48  50 E3        29.93R
$$

ARZ036-290400-
EAST ARKANSAS

CITY           SKY/WX    TMP DP  RH WIND       PRES   REMARKS
WEST MEMPHIS   CLEAR     65  56  72 N5        29.96R
$$

ARZ050-053-066-070-073-290400-
SOUTHWEST ARKANSAS

CITY           SKY/WX    TMP DP  RH WIND       PRES   REMARKS
ARKADELPHIA    FAIR      66  66 100 CALM      29.92R
CAMDEN         CLEAR     66  57  72 E5        29.91R
TEXARKANA      CLEAR     70  57  63 CALM      29.89R
EL DORADO      CLEAR     67  61  81 CALM      29.90S
DE QUEEN       PTCLDY    63  58  83 CALM      29.88R
$$

ARZ056-057-069-290400-
SOUTHEAST ARKANSAS

CITY           SKY/WX    TMP DP  RH WIND       PRES   REMARKS
PINE BLUFF     CLEAR     72  54  53 NE7       29.93R
STUTTGART      CLEAR     70  55  60 MISG      29.95R
MONTICELLO     CLEAR     66  61  84 CALM      29.92R

$$






USA.gov is the U.S. government's official web portal to all federal, state and local government web resources and services.